Вернуться в каталог

STARLINK-30530

АктивенСвязьVLEO
NORAD 58005·PAYLOAD·🇺🇸 United States

Запущен Oct 5, 2023 с Cape Canaveral Space Force Station

Loading…

Ближайшие Пролёты (ближайшие 24 часа)

TLE

СвежийSource: CelesTrak SupGP

Эпоха: Sep 14, 2026, 21:24 UTC

1 58005C 23153Q   26257.89215278  .00042518  00000+0  15398-2 0  2570
2 58005  43.0035  78.3856 0001713 273.8867 106.0869 15.27561857    13

Отслеживайте STARLINK-30530 в реальном времени с AllMySat

Download on the App Store